Location: Couloutre
(47.4081°N, 3.2259°E)
Time: 06:25:16
(UTC+00:00)

SJ 16-02 - Pass Details

Date: 27 February 2020
Orbit: 606 x 616 km, 75.0° (Epoch: 28 March)

Event Time Altitude Azimuth Distance (km) Brightness Sun altitude
Rises 18:59:39 0° 336° (NNW) 2,890 5.2 -16.2°
Reaches altitude 10° 19:01:55 10° 333° (NNW) 1,979 4.4 -16.6°
Maximum altitude 19:06:16 62° 254° (WSW) 690 1.8 -17.3°
Drops below altitude 10° 19:10:35 10° 173° (S) 1,957 3.8 -18.1°
Sets 19:12:49 0° 170° (S) 2,854 4.6 -18.4°
Enters shadow 19:12:53 - 170° (S) 2,883 4.6 -18.4°
